Weather History for KSAW - March, 2013

Change the Weather History Date:

Saturday, March 9, 2013

  Actual Average (KESC) Record (KESC)
Temperature  
Mean Temperature 28 °F -  
Max Temperature 33 °F 34 °F 58 °F (1977)
Min Temperature 22 °F 16 °F -11 °F (1972)
Degree Days  
Heating Degree Days 38    
Moisture  
Dew Point 27 °F    
Average Humidity 93    
Maximum Humidity 100    
Minimum Humidity 81    
Precipitation  
Precipitation 0.00 in - - ()
Sea Level Pressure  
Sea Level Pressure 30.07 in    
Wind  
Wind Speed 11 mph (South)    
Max Wind Speed 22 mph    
Max Gust Speed 28 mph    
Visibility 6 miles    
Events Snow    
Averages and records for this station are not official NWS values.
T = Trace of Precipitation, MM = Missing Value Source: NWS Daily Summary

Daily Weather History Graph

Daily Weather History Graph

Search for Another Location

Airport or City:

Trip Planner

Search our weather history database for the weather conditions in past years. The results will help you decide how hot, cold, wet, or windy it might be!

Date:

Astronomy

Mar. 09, 2013 Rise Set
Actual Time 7:13 AM EST 6:47 PM EST
Civil Twilight 6:43 AM EST 7:17 PM EST
Nautical Twilight 6:08 AM EST 7:52 PM EST
Astronomical Twilight 5:33 AM EST 8:27 PM EST
Moon 5:43 AM EST (3/9) 4:44 PM EST (3/9)
Length of Visible Light 12h 34m
Length of Day
11h 34m
Waning Crescent, 5% of the Moon is Illuminated
Mar 9
Waning Crescent
Mar 11
New
Mar 19
First Quarter
Mar 27
Full
Apr 3
Last Quarter

Hourly Weather History & Observations

Time (EST) Temp. Windchill Dew Point Humidity Pressure Visibility Wind Dir Wind Speed Gust Speed Precip Events Conditions
12:16 AM 25.9 °F 16.0 °F 23.2 °F 90% 30.24 in 10.0 mi South 10.4 mph - N/A   Clear
12:37 AM 25.5 °F 16.2 °F 23.2 °F 91% 30.24 in 10.0 mi South 9.2 mph - N/A   Clear
12:57 AM 25.5 °F 16.2 °F 23.4 °F 92% 30.24 in 10.0 mi South 9.2 mph - N/A   Clear
1:16 AM 25.0 °F 15.5 °F 22.8 °F 91% 30.24 in 10.0 mi South 9.2 mph - N/A   Clear
1:37 AM 24.3 °F 15.4 °F 22.5 °F 93% 30.24 in 10.0 mi SSW 8.1 mph - N/A   Clear
1:57 AM 23.7 °F 15.6 °F 22.1 °F 94% 30.24 in 10.0 mi SSW 6.9 mph - N/A   Clear
2:16 AM 24.3 °F 15.4 °F 22.8 °F 94% 30.23 in 7.0 mi South 8.1 mph - N/A   Clear
2:37 AM 23.9 °F 15.0 °F 22.8 °F 96% 30.22 in 7.0 mi South 8.1 mph - N/A   Clear
2:56 AM 23.5 °F 14.5 °F 22.1 °F 94% 30.21 in 7.0 mi South 8.1 mph - N/A   Clear
3:17 AM 23.7 °F 13.3 °F 22.6 °F 96% 30.20 in 5.0 mi South 10.4 mph - N/A   Clear
3:37 AM 23.7 °F 13.3 °F 22.6 °F 96% 30.19 in 5.0 mi South 10.4 mph - N/A   Clear
3:56 AM 23.7 °F 14.7 °F 22.5 °F 95% 30.19 in 5.0 mi SSW 8.1 mph - N/A   Clear
4:17 AM 23.0 °F 13.9 °F 22.1 °F 96% 30.18 in 4.0 mi SSW 8.1 mph - N/A   Mostly Cloudy
4:36 AM 23.0 °F 14.7 °F 22.1 °F 96% 30.17 in 4.0 mi SSW 6.9 mph - N/A   Mostly Cloudy
4:57 AM 22.8 °F 14.5 °F 21.4 °F 94% 30.17 in 4.0 mi SSW 6.9 mph - N/A   Overcast
5:17 AM 23.0 °F 13.9 °F 21.9 °F 96% 30.18 in 3.0 mi SSW 8.1 mph - N/A   Overcast
5:36 AM 23.5 °F 14.5 °F 22.5 °F 96% 30.17 in 1.2 mi SSW 8.1 mph - N/A   Overcast
5:57 AM 23.7 °F 15.6 °F 22.6 °F 96% 30.17 in 1.0 mi SW 6.9 mph - N/A   Overcast
6:50 AM 24.8 °F 15.3 °F 23.0 °F 93% 30.16 in 2.5 mi South 9.2 mph - N/A   Overcast
7:50 AM 24.8 °F 14.6 °F 24.8 °F 100% 30.15 in 7.0 mi South 10.4 mph - N/A   Scattered Clouds
8:50 AM 26.6 °F 15.7 °F 26.6 °F 100% 30.14 in 5.0 mi SSW 12.7 mph - N/A   Mostly Cloudy
9:05 AM 28.4 °F 17.0 °F 26.6 °F 93% 30.14 in 5.0 mi South 15.0 mph - N/A   Overcast
9:50 AM 30.2 °F 20.2 °F 28.4 °F 93% 30.12 in 7.0 mi South 12.7 mph - N/A   Overcast
10:50 AM 30.2 °F 19.3 °F 28.4 °F 93% 30.11 in 10.0 mi South 15.0 mph - N/A   Overcast
11:50 AM 32.0 °F 22.1 °F 28.4 °F 87% 30.07 in 10.0 mi South 13.8 mph - N/A   Overcast
12:50 PM 33.8 °F 24.8 °F 28.4 °F 81% 30.06 in 3.0 mi South 12.7 mph - N/A Snow Light Snow
1:50 PM 33.8 °F 23.5 °F 30.2 °F 87% 30.02 in 5.0 mi SSE 16.1 mph - N/A Snow Light Snow
2:30 PM 33.8 °F 24.8 °F 30.2 °F 87% 30.00 in 1.0 mi South 12.7 mph 17.3 mph N/A Snow Light Snow
2:50 PM 33.8 °F 25.3 °F 32.0 °F 93% 29.99 in 1.0 mi South 11.5 mph - N/A Snow Light Snow
3:55 PM 33.8 °F 23.2 °F 32.0 °F 93% 29.95 in 4.0 mi South 17.3 mph 21.9 mph N/A   Light Drizzle
4:50 PM 32.0 °F 20.1 °F 32.0 °F 100% 29.94 in 3.0 mi South 19.6 mph 26.5 mph N/A Snow Light Snow
5:50 PM 33.8 °F 23.2 °F 30.2 °F 87% 29.91 in 10.0 mi South 17.3 mph 24.2 mph N/A   Overcast
6:50 PM 33.8 °F 22.8 °F 28.4 °F 81% 29.88 in 8.0 mi South 18.4 mph 23.0 mph N/A   Overcast
7:55 PM 32.0 °F 19.5 °F 30.2 °F 93% 29.86 in 5.0 mi South 21.9 mph 27.6 mph N/A Snow Light Snow
8:50 PM 32.0 °F 20.8 °F 30.2 °F 93% 29.84 in 4.0 mi South 17.3 mph - N/A Snow Light Snow
9:50 PM 32.0 °F 20.8 °F 32.0 °F 100% 29.84 in 4.0 mi South 17.3 mph 26.5 mph N/A Snow Light Snow
10:17 PM 32.9 °F 22.0 °F 31.6 °F 95% 29.82 in 7.0 mi South 17.3 mph 23.0 mph N/A   Overcast
10:37 PM 32.9 °F 21.6 °F 31.8 °F 96% 29.82 in 7.0 mi South 18.4 mph 23.0 mph N/A   Overcast
10:56 PM 32.9 °F 22.4 °F 31.8 °F 96% 29.81 in 7.0 mi South 16.1 mph 20.7 mph N/A Snow Light Snow
11:17 PM 32.9 °F 22.0 °F 32.0 °F 96% 29.80 in 7.0 mi South 17.3 mph 25.3 mph N/A Snow Light Snow
11:36 PM 32.9 °F 21.6 °F 32.0 °F 96% 29.80 in 5.0 mi SSW 18.4 mph - N/A   Overcast
11:57 PM 33.1 °F 23.4 °F 32.0 °F 96% 29.80 in 5.0 mi SSW 13.8 mph - N/A   Overcast